Regional Weather Roundup
Issued by NWS

Home | Current Version | Previous Version | Graphics & Text | Print | Product List | Glossary On
Versions: 1 2 3 4 5 6 7 8 9 10 11 12 13 14 15 16 17 18 19 20 21 22 23 24 25 26 27 28 29 30 31 32 33 34 35 36 37 38 39 40 41 42 43 44 45 46 47 48 49 50
140
ASUS43 KLMK 170710
RWRKY
KENTUCKY REGIONAL WEATHER ROUNDUP
NATIONAL WEATHER SERVICE LOUISVILLE KY
200 AM EST TUE JAN 17 2017

NOTE "FAIR" INDICATES FEW OR NO CLOUDS BELOW 12,000 FEET
WITH NO SIGNIFICANT WEATHER AND/OR OBSTRUCTIONS TO VISIBILITY.

KYZ001>023-026-027-061>063-070>075-170800-
WESTERN AND SOUTH CENTRAL KENTUCKY

CITY           SKY/WX    TMP DP  RH WIND       PRES   REMARKS
PADUCAH        CLOUDY    62  59  90 SW12G17   29.91R
HENDERSON      CLOUDY    59  55  88 S8        29.91F
OWENSBORO      RAIN      59  58  96 S14       29.93F
HOPKINSVILLE   LGT RAIN  61  61 100 S9        29.96R
BOWLING GREEN  RAIN      60  56  86 S15       29.99F FOG
GLASGOW        RAIN      58  58 100 S7        30.02R
$$

KYZ024-025-028>034-038-045-046-053-170800-
NORTH CENTRAL KENTUCKY

CITY           SKY/WX    TMP DP  RH WIND       PRES   REMARKS
LOUISVILLE/SDF RAIN      59  55  87 S13       29.98S
LOUISVILLE/LOU RAIN      58  55  90 S12       29.98F
FORT KNOX      HVY RAIN  57  57 100 S20G25    29.96F FOG
$$

KYZ035>037-039>044-047>052-055>060-089>105-170800-
NORTHEAST KENTUCKY

CITY           SKY/WX    TMP DP  RH WIND       PRES   REMARKS
LEXINGTON      RAIN      57  54  89 S15       30.03F FOG
COVINGTON      CLOUDY    56  54  93 S16G23    29.96F
FRANKFORT      LGT RAIN  58  53  84 S12       30.00F
$$

KYZ054-064>069-076>088-106>120-170800-
SOUTHEAST KENTUCKY

CITY           SKY/WX    TMP DP  RH WIND       PRES   REMARKS
JACKSON        LGT RAIN  59  50  72 SW5       30.09S
LONDON         LGT RAIN  57  52  83 S5        30.08F
SOMERSET       LGT RAIN  55  55 100 S6        30.08F
MIDDLESBORO    CLOUDY    59  53  82 S9        30.13F
MONTICELLO     RAIN      59  55  87 VRB6      30.07F
$$





USA.gov is the U.S. government's official web portal to all federal, state and local government web resources and services.